�N����,����,�~����,�C��,���x,�C��,����,���ϕ���,�ő�u�ԕ���,�ő厞����,���˗�,�I�_���x,�n�����x,�ő啗���N��,DTYPE
"20/12/06","00:10",0.0,4.0,85.7,1020.6,307.1,0.7,1.4,305.8,0.00,1.9,9.4,"00:09:58",1
"20/12/06","00:20",0.0,3.7,86.2,1020.4,312.9,1.6,2.6,324.9,0.00,1.7,9.2,"00:10:40",1
"20/12/06","00:30",0.0,3.6,86.7,1020.6,313.4,1.8,2.5,320.2,0.00,1.6,8.9,"00:22:16",1
"20/12/06","00:40",0.0,3.4,87.1,1020.1,305.4,1.6,2.1,311.3,0.00,1.5,9.1,"00:37:12",1
"20/12/06","00:50",0.0,3.1,87.6,1019.9,302.8,1.8,2.7,321.0,0.00,1.3,9.0,"00:49:12",1
"20/12/06","01:00",0.0,3.1,88.1,1019.4,306.6,1.8,2.9,322.2,0.00,1.4,9.0,"00:52:00",1
"20/12/06","01:10",0.0,3.3,88.5,1019.7,321.5,1.7,2.9,320.7,0.00,1.6,9.0,"01:01:12",1
"20/12/06","01:20",0.0,3.1,88.9,1019.7,302.7,1.5,2.6,310.1,0.00,1.5,8.9,"01:18:16",1
"20/12/06","01:30",0.0,3.4,89.5,1019.7,298.7,2.1,3.4,317.3,0.00,1.9,8.9,"01:26:08",1
"20/12/06","01:40",0.0,4.0,89.6,1019.7,291.6,2.1,3.7,312.4,0.00,2.5,8.8,"01:32:08",1
"20/12/06","01:50",0.0,3.5,89.8,1019.4,270.5,0.5,1.1,285.2,0.00,2.0,8.7,"01:40:08",1
"20/12/06","02:00",0.0,3.0,90.3,1019.4,294.9,1.6,2.6,318.6,0.00,1.6,8.5,"01:58:48",1
"20/12/06","02:10",0.0,2.8,90.6,1019.4,308.9,2.2,2.8,320.5,0.00,1.5,8.5,"02:04:16",1
"20/12/06","02:20",0.0,3.0,91.0,1019.4,301.2,2.2,3.6,318.3,0.00,1.7,8.3,"02:11:28",1
"20/12/06","02:30",0.0,3.8,91.3,1019.2,309.7,3.1,4.9,322.8,0.00,2.6,8.5,"02:24:40",1
"20/12/06","02:40",0.0,4.1,91.2,1019.4,326.5,3.1,4.5,337.7,0.00,2.8,8.4,"02:38:40",1
"20/12/06","02:50",0.0,4.2,91.2,1019.2,327.8,3.0,4.7,327.7,0.00,2.9,8.6,"02:46:08",1
"20/12/06","03:00",0.0,4.3,91.1,1019.4,327.8,2.6,4.0,336.5,0.00,3.0,8.5,"02:50:40",1
"20/12/06","03:10",0.0,4.2,91.1,1019.2,298.2,2.0,2.9,333.3,0.00,2.9,8.5,"03:05:28",1
"20/12/06","03:20",0.0,4.1,91.1,1019.2,285.9,1.7,2.9,306.1,0.00,2.8,8.5,"03:15:20",1
"20/12/06","03:30",0.0,4.1,91.1,1019.2,294.7,2.0,3.3,313.5,0.00,2.8,8.5,"03:22:48",1
"20/12/06","03:40",0.0,4.2,91.1,1019.4,290.0,2.2,5.2,311.9,0.00,2.9,8.5,"03:38:56",1
"20/12/06","03:50",0.0,4.2,90.7,1019.7,308.3,2.1,3.6,307.2,0.00,2.9,8.4,"03:42:32",1
"20/12/06","04:00",0.0,4.0,90.7,1019.4,317.2,2.1,3.2,317.5,0.00,2.7,8.3,"03:50:02",1
"20/12/06","04:10",0.0,4.3,90.6,1019.4,298.8,2.5,4.1,311.6,0.00,2.9,8.3,"04:04:56",1
"20/12/06","04:20",0.0,4.0,90.4,1019.4,319.4,2.0,3.7,340.6,0.00,2.6,8.4,"04:15:52",1
"20/12/06","04:30",0.0,3.2,90.3,1019.7,306.7,1.1,1.8,316.1,0.00,1.8,8.4,"04:26:48",1
"20/12/06","04:40",0.0,2.6,90.5,1019.4,303.8,1.3,2.0,328.5,0.00,1.2,8.3,"04:33:12",1
"20/12/06","04:50",0.0,2.1,90.7,1019.4,283.7,1.6,2.5,310.4,0.00,0.8,8.2,"04:40:02",1
"20/12/06","05:00",0.0,2.2,90.7,1018.7,308.0,2.0,2.4,311.6,0.00,0.9,8.4,"04:50:40",1
"20/12/06","05:10",0.0,2.9,90.9,1019.7,318.0,2.2,4.5,316.9,0.00,1.6,8.2,"05:04:00",1
"20/12/06","05:20",0.0,2.8,90.8,1019.4,304.8,1.5,2.1,332.3,0.00,1.5,8.1,"05:10:08",1
"20/12/06","05:30",0.0,2.6,91.0,1019.2,305.5,1.7,2.4,312.9,0.00,1.3,8.2,"05:23:04",1
"20/12/06","05:40",0.0,2.5,91.4,1019.4,298.9,1.7,3.3,320.0,0.00,1.3,8.1,"05:39:20",1
"20/12/06","05:50",0.0,3.5,91.6,1019.4,320.4,2.7,4.2,332.3,0.00,2.3,8.0,"05:40:02",1
"20/12/06","06:00",0.0,3.8,91.3,1020.1,324.2,1.8,3.6,330.8,0.00,2.6,8.1,"05:54:48",1
"20/12/06","06:10",0.0,3.1,91.4,1019.4,179.0,0.6,1.8,313.2,0.00,1.9,8.0,"06:08:10",1
"20/12/06","06:20",0.0,2.5,91.8,1020.1,297.3,1.6,4.3,324.9,0.00,1.3,8.1,"06:10:02",1
"20/12/06","06:30",0.0,3.0,92.0,1020.1,315.8,2.1,3.5,321.5,0.00,1.9,7.9,"06:20:16",1
"20/12/06","06:40",0.0,3.2,92.1,1020.4,330.2,1.7,2.9,323.8,0.00,2.1,8.0,"06:30:56",1
"20/12/06","06:50",0.0,3.3,92.2,1020.6,325.1,2.1,4.3,333.9,0.00,2.2,8.0,"06:49:04",1
"20/12/06","07:00",0.0,3.6,92.2,1020.8,285.0,1.5,3.2,320.7,0.00,2.5,8.1,"06:51:04",1
"20/12/06","07:10",0.0,3.2,92.2,1020.6,292.0,0.8,2.4,319.8,0.00,2.1,8.1,"07:08:34",1
"20/12/06","07:20",0.0,2.9,92.3,1020.8,298.9,0.3,1.9,310.5,0.00,1.8,7.8,"07:19:44",1
"20/12/06","07:30",0.0,2.8,92.6,1020.8,309.0,1.8,2.5,324.6,0.00,1.8,8.2,"07:26:08",1
"20/12/06","07:40",0.0,2.8,92.8,1020.6,281.6,1.2,1.7,269.6,0.00,1.8,7.9,"07:31:12",1
"20/12/06","07:50",0.0,3.4,92.9,1021.1,287.2,0.8,1.2,296.2,0.01,2.4,8.1,"07:46:50",1
"20/12/06","08:00",0.0,4.0,92.8,1021.5,282.2,0.6,1.0,265.5,0.02,3.0,7.9,"07:53:54",1
"20/12/06","08:10",0.0,4.8,92.7,1021.3,300.4,1.5,2.4,312.1,0.04,3.8,7.9,"08:08:38",1
"20/12/06","08:20",0.0,5.6,92.7,1021.3,284.6,0.7,1.7,304.3,0.06,4.6,8.2,"08:10:08",1
"20/12/06","08:30",0.0,6.2,92.1,1021.5,276.0,0.8,1.1,270.1,0.08,5.1,8.3,"08:26:40",1
"20/12/06","08:40",0.0,6.8,91.9,1022.3,295.5,0.6,1.4,307.2,0.10,5.6,8.2,"08:35:20",1
"20/12/06","08:50",0.0,6.7,90.7,1022.3,254.8,0.7,1.6,234.7,0.13,5.3,8.6,"08:49:36",1
"20/12/06","09:00",0.0,7.4,90.0,1022.5,259.2,0.7,1.3,259.4,0.15,5.9,8.5,"08:57:12",1
"20/12/06","09:10",0.0,7.7,89.0,1022.7,271.5,1.0,2.0,318.3,0.17,6.0,8.9,"09:05:28",1
"20/12/06","09:20",0.0,8.4,87.9,1022.7,289.5,0.7,1.2,308.9,0.20,6.6,9.1,"09:14:48",1
"20/12/06","09:30",0.0,8.8,86.4,1022.7,279.3,0.7,1.4,229.9,0.22,6.7,9.2,"09:20:48",1
"20/12/06","09:40",0.0,8.7,83.7,1023.0,5.7,0.6,1.3,312.7,0.21,6.1,9.6,"09:35:36",1
"20/12/06","09:50",0.0,9.3,81.5,1023.0,306.6,0.8,1.9,318.1,0.26,6.3,9.7,"09:44:16",1
"20/12/06","10:00",0.0,9.9,78.1,1023.0,205.3,0.7,1.2,242.6,0.30,6.3,9.8,"09:56:08",1
"20/12/06","10:10",0.0,10.2,75.4,1022.5,143.3,0.6,1.9,102.9,0.31,6.1,10.0,"10:00:40",1
"20/12/06","10:20",0.0,10.8,73.1,1022.3,204.8,0.7,1.6,234.0,0.32,6.2,10.1,"10:15:36",1
"20/12/06","10:30",0.0,10.9,71.7,1022.0,219.4,1.3,3.4,235.8,0.33,6.0,10.4,"10:25:44",1
"20/12/06","10:40",0.0,10.9,70.8,1022.0,229.4,1.5,3.4,232.1,0.35,5.9,10.5,"10:31:44",1
"20/12/06","10:50",0.0,11.2,69.6,1022.0,173.8,1.1,2.4,124.8,0.36,5.9,10.8,"10:48:00",1
"20/12/06","11:00",0.0,11.8,68.6,1021.8,173.5,0.7,1.6,83.6,0.38,6.3,10.9,"10:59:04",1
"20/12/06","11:10",0.0,12.3,67.4,1021.3,188.3,0.8,1.7,132.2,0.45,6.5,11.5,"11:02:24",1
"20/12/06","11:20",0.0,13.2,65.9,1021.5,264.0,0.7,1.8,342.7,0.47,7.0,11.7,"11:13:44",1
"20/12/06","11:30",0.0,12.8,63.0,1021.3,339.1,1.0,2.1,353.4,0.31,6.0,11.7,"11:25:12",1
"20/12/06","11:40",0.0,12.5,63.6,1020.8,235.8,0.7,1.4,218.9,0.24,5.8,11.9,"11:34:56",1
"20/12/06","11:50",0.0,12.7,63.3,1020.6,212.9,1.2,2.8,211.9,0.33,6.0,12.0,"11:46:48",1
"20/12/06","12:00",0.0,13.3,61.9,1020.4,115.8,1.1,2.5,106.1,0.41,6.2,12.2,"11:59:20",1
"20/12/06","12:10",0.0,13.6,60.7,1019.9,134.8,1.2,2.9,116.1,0.42,6.2,12.5,"12:00:08",1
"20/12/06","12:20",0.0,14.0,58.8,1019.9,154.6,0.8,2.5,103.9,0.41,6.1,12.6,"12:19:36",1
"20/12/06","12:30",0.0,14.2,57.1,1019.4,36.8,1.0,2.0,119.4,0.41,5.9,12.8,"12:24:48",1
"20/12/06","12:40",0.0,14.6,56.4,1019.2,47.1,1.0,2.4,106.8,0.40,6.1,13.1,"12:34:16",1
"20/12/06","12:50",0.0,14.8,54.8,1019.2,111.2,1.1,3.3,112.6,0.39,5.8,13.2,"12:43:44",1
"20/12/06","13:00",0.0,15.1,54.1,1019.0,221.3,1.0,1.9,165.4,0.39,5.9,13.5,"12:50:24",1
"20/12/06","13:10",0.0,15.4,52.7,1019.0,227.5,0.8,1.8,120.2,0.38,5.8,13.7,"13:03:52",1
"20/12/06","13:20",0.0,15.4,52.0,1019.2,241.1,1.7,3.6,232.9,0.37,5.6,13.7,"13:11:52",1
"20/12/06","13:30",0.0,15.4,51.9,1018.7,278.2,1.7,3.5,321.9,0.35,5.6,13.7,"13:25:12",1
"20/12/06","13:40",0.0,15.6,51.0,1019.0,248.7,1.3,2.8,230.9,0.34,5.5,13.9,"13:32:24",1
"20/12/06","13:50",0.0,15.7,49.6,1018.7,307.5,1.5,3.3,318.6,0.32,5.2,14.0,"13:44:16",1
"20/12/06","14:00",0.0,15.9,51.1,1018.5,218.3,1.1,3.1,226.9,0.30,5.9,14.2,"13:52:08",1
"20/12/06","14:10",0.0,15.5,50.5,1018.2,206.1,1.5,3.1,273.5,0.28,5.3,14.2,"14:07:04",1
"20/12/06","14:20",0.0,15.8,48.7,1018.2,252.3,1.0,2.7,204.0,0.26,5.1,14.3,"14:18:08",1
"20/12/06","14:30",0.0,16.1,48.4,1018.2,239.0,1.5,2.8,216.2,0.24,5.3,14.2,"14:26:32",1
"20/12/06","14:40",0.0,16.0,48.3,1018.0,250.6,1.5,2.8,221.2,0.21,5.1,14.1,"14:31:12",1
"20/12/06","14:50",0.0,15.9,47.6,1018.2,258.7,1.7,2.8,231.5,0.19,4.8,14.1,"14:41:20",1
"20/12/06","15:00",0.0,15.7,47.0,1018.2,280.8,1.8,3.7,316.6,0.17,4.5,13.9,"14:56:32",1
"20/12/06","15:10",0.0,15.7,47.8,1018.0,271.1,1.5,3.5,267.3,0.14,4.7,14.1,"15:07:12",1
"20/12/06","15:20",0.0,15.3,47.0,1018.5,272.1,1.7,2.9,298.1,0.12,4.1,13.9,"15:17:12",1
"20/12/06","15:30",0.0,15.1,48.2,1018.5,272.6,1.8,3.9,236.6,0.09,4.3,13.7,"15:28:08",1
"20/12/06","15:40",0.0,15.0,48.3,1018.5,265.2,1.8,2.8,233.1,0.07,4.2,13.6,"15:31:44",1
"20/12/06","15:50",0.0,14.8,49.5,1019.0,278.9,1.7,2.8,293.8,0.05,4.4,13.7,"15:41:52",1
"20/12/06","16:00",0.0,14.7,49.8,1019.2,283.3,1.5,2.5,296.8,0.03,4.4,13.7,"15:55:36",1
"20/12/06","16:10",0.0,14.2,50.3,1019.2,285.4,1.6,2.5,312.4,0.01,4.1,13.3,"16:04:32",1
"20/12/06","16:20",0.0,13.3,53.7,1019.0,295.9,1.2,2.9,336.8,0.00,4.2,13.4,"16:11:44",1
"20/12/06","16:30",0.0,12.6,57.0,1019.0,275.8,1.2,1.9,294.5,0.00,4.4,13.0,"16:26:24",1
"20/12/06","16:40",0.0,11.7,60.1,1019.0,285.3,1.3,1.9,269.0,0.00,4.3,12.9,"16:30:18",1
"20/12/06","16:50",0.0,11.0,63.3,1018.7,277.9,1.5,2.0,269.9,0.00,4.3,12.9,"16:48:54",1
"20/12/06","17:00",0.0,10.4,65.7,1018.7,281.7,1.3,1.9,274.1,0.00,4.3,12.5,"16:54:26",1
"20/12/06","17:10",0.0,9.8,67.1,1018.7,292.8,1.3,1.9,321.4,0.00,4.0,12.3,"17:01:12",1
"20/12/06","17:20",0.0,9.2,68.1,1019.0,305.2,1.5,1.9,320.6,0.00,3.7,12.1,"17:11:20",1
"20/12/06","17:30",0.0,9.2,70.1,1018.7,317.5,2.1,2.8,318.2,0.00,4.1,12.1,"17:26:48",1
"20/12/06","17:40",0.0,9.1,71.5,1018.7,304.3,2.1,3.4,325.6,0.00,4.3,11.7,"17:30:02",1
"20/12/06","17:50",0.0,8.9,72.8,1019.0,309.4,2.3,3.2,320.6,0.00,4.3,11.7,"17:46:24",1
"20/12/06","18:00",0.0,8.9,73.8,1019.2,293.1,2.2,3.3,325.0,0.00,4.5,11.7,"17:52:48",1
"20/12/06","18:10",0.0,8.7,74.6,1019.2,279.2,1.8,2.2,269.7,0.00,4.5,11.6,"18:00:48",1
"20/12/06","18:20",0.0,8.2,75.5,1019.0,315.9,2.0,2.6,318.6,0.00,4.2,11.5,"18:18:24",1
"20/12/06","18:30",0.0,7.7,76.9,1018.7,320.7,1.7,2.4,304.4,0.00,3.9,11.2,"18:20:24",1
"20/12/06","18:40",0.0,7.3,77.5,1019.0,308.3,1.6,2.5,319.4,0.00,3.7,11.2,"18:30:40",1
"20/12/06","18:50",0.0,6.9,78.6,1019.4,300.4,1.7,2.7,318.8,0.00,3.5,11.1,"18:40:16",1
"20/12/06","19:00",0.0,7.0,79.7,1019.4,313.3,1.7,2.5,306.3,0.00,3.8,10.8,"18:54:48",1
"20/12/06","19:10",0.0,6.7,80.8,1019.4,301.9,1.5,3.5,314.5,0.00,3.7,10.8,"19:09:12",1
"20/12/06","19:20",0.0,7.7,81.7,1019.0,317.8,3.4,4.5,327.4,0.00,4.8,10.8,"19:18:40",1
"20/12/06","19:30",0.0,7.9,81.6,1019.4,314.2,3.2,4.3,326.0,0.00,5.0,10.7,"19:25:04",1
"20/12/06","19:40",0.0,7.9,81.5,1019.4,320.3,3.4,4.4,327.2,0.00,5.0,10.6,"19:36:48",1
"20/12/06","19:50",0.0,7.8,81.2,1019.7,325.3,3.4,5.2,333.3,0.00,4.8,10.6,"19:42:24",1
"20/12/06","20:00",0.0,7.7,81.2,1019.7,324.5,3.2,5.9,311.7,0.00,4.7,10.5,"19:56:00",1
"20/12/06","20:10",0.0,7.7,81.1,1019.7,329.6,3.2,4.7,335.5,0.00,4.7,10.5,"20:02:24",1
"20/12/06","20:20",0.0,7.4,81.1,1019.4,328.6,3.2,4.5,323.8,0.00,4.4,10.3,"20:13:52",1
"20/12/06","20:30",0.0,7.4,81.4,1019.7,325.3,3.5,4.4,329.7,0.00,4.5,10.4,"20:26:24",1
"20/12/06","20:40",0.0,7.3,81.3,1019.9,316.5,3.5,4.4,324.6,0.00,4.4,10.4,"20:30:08",1
"20/12/06","20:50",0.0,7.2,81.5,1019.9,321.4,3.4,4.4,312.9,0.00,4.3,10.2,"20:41:12",1
"20/12/06","21:00",0.0,7.0,81.8,1019.7,311.5,2.8,4.3,321.5,0.00,4.1,10.4,"20:56:08",1
"20/12/06","21:10",0.0,6.5,82.3,1019.7,298.7,2.5,4.0,323.4,0.00,3.7,10.2,"21:00:02",1
"20/12/06","21:20",0.0,6.3,82.9,1019.7,290.1,2.2,4.0,327.2,0.00,3.7,10.0,"21:10:08",1
"20/12/06","21:30",0.0,6.6,83.7,1019.4,315.3,3.6,5.0,322.5,0.00,4.1,10.2,"21:22:40",1
"20/12/06","21:40",0.0,6.6,83.7,1019.4,295.7,2.7,5.1,318.8,0.00,4.1,10.2,"21:31:28",1
"20/12/06","21:50",0.0,6.4,84.1,1019.0,306.7,2.5,3.6,315.8,0.00,4.0,10.0,"21:49:52",1
"20/12/06","22:00",0.0,6.4,84.3,1019.2,324.6,2.0,3.9,331.3,0.00,4.0,10.1,"21:51:36",1
"20/12/06","22:10",0.0,5.5,84.5,1019.7,290.3,1.0,1.3,328.6,0.00,3.1,9.7,"22:00:56",1
"20/12/06","22:20",0.0,4.7,84.9,1019.4,305.1,1.5,2.1,321.4,0.00,2.4,9.8,"22:16:40",1
"20/12/06","22:30",0.0,4.0,85.3,1019.2,287.6,1.2,1.4,291.6,0.00,1.8,9.7,"22:24:08",1
"20/12/06","22:40",0.0,3.9,85.8,1019.2,300.2,1.5,3.4,319.4,0.00,1.8,9.5,"22:39:52",1
"20/12/06","22:50",0.0,5.1,86.6,1019.0,300.7,2.3,3.6,290.0,0.00,3.1,9.4,"22:42:00",1
"20/12/06","23:00",0.0,6.0,86.9,1019.2,317.3,3.5,4.9,330.8,0.00,4.0,9.5,"22:52:08",1
"20/12/06","23:10",0.0,6.0,87.0,1019.0,310.5,3.0,3.9,311.7,0.00,4.0,9.5,"23:01:20",1
"20/12/06","23:20",0.0,6.0,87.1,1019.2,319.0,2.2,4.0,334.4,0.00,4.1,9.4,"23:10:08",1
"20/12/06","23:30",0.0,5.9,87.0,1019.2,315.2,1.8,3.7,313.2,0.00,3.9,9.4,"23:20:40",1
"20/12/06","23:40",0.0,5.1,87.2,1019.2,298.7,1.5,2.8,337.7,0.00,3.2,9.4,"23:39:44",1
"20/12/06","23:50",0.0,4.3,87.5,1019.2,306.7,2.0,2.7,331.6,0.00,2.5,9.0,"23:40:16",1
"20/12/06","24:00",0.0,4.0,88.0,1019.4,282.7,1.3,1.8,287.6,0.00,2.2,9.1,"23:56:40",1
